Year,Month,Day,Hour,Minute,Value (Times are PST for temperature in C)
2018,08,07,00,00,21.40
2018,08,07,00,01,21.40
2018,08,07,00,02,21.40
2018,08,07,00,03,21.40
2018,08,07,00,04,21.40
2018,08,07,00,05,21.40
2018,08,07,00,06,21.40
2018,08,07,00,07,21.40
2018,08,07,00,08,21.40
2018,08,07,00,09,21.40
2018,08,07,00,10,21.40
2018,08,07,00,11,21.40
2018,08,07,00,12,21.40
2018,08,07,00,13,21.40
2018,08,07,00,14,21.40
2018,08,07,00,15,21.30
2018,08,07,00,16,21.30
2018,08,07,00,17,21.30
2018,08,07,00,18,21.30
2018,08,07,00,19,21.30
2018,08,07,00,20,21.30
2018,08,07,00,21,21.30
2018,08,07,00,22,21.20
2018,08,07,00,23,21.20
2018,08,07,00,24,21.20
2018,08,07,00,25,21.20
2018,08,07,00,26,21.20
2018,08,07,00,27,21.20
2018,08,07,00,28,21.20
2018,08,07,00,29,21.20
2018,08,07,00,30,21.20
2018,08,07,00,31,21.20
2018,08,07,00,32,21.20
2018,08,07,00,33,21.20
2018,08,07,00,34,21.20
2018,08,07,00,35,21.20
2018,08,07,00,36,21.20
2018,08,07,00,37,21.20
2018,08,07,00,38,21.20
2018,08,07,00,39,21.20
2018,08,07,00,40,21.20
2018,08,07,00,41,21.20
2018,08,07,00,42,21.20
2018,08,07,00,43,21.20
2018,08,07,00,44,21.20
2018,08,07,00,45,21.20
2018,08,07,00,46,21.20
2018,08,07,00,47,21.20
2018,08,07,00,48,21.20
2018,08,07,00,49,21.20
2018,08,07,00,50,21.10
2018,08,07,00,51,21.10
2018,08,07,00,52,21.10
2018,08,07,00,53,21.10
2018,08,07,00,54,21.10
2018,08,07,00,55,21.10
2018,08,07,00,56,21.10
2018,08,07,00,57,21.10
2018,08,07,00,58,21.10
2018,08,07,00,59,21.10
2018,08,07,01,00,21.10
2018,08,07,01,01,21.10
2018,08,07,01,02,21.10
2018,08,07,01,03,21.10
2018,08,07,01,04,21.10
2018,08,07,01,05,21.10
2018,08,07,01,06,21.10
2018,08,07,01,07,21.00
2018,08,07,01,08,21.00
2018,08,07,01,09,21.00
2018,08,07,01,10,21.00
2018,08,07,01,11,21.00
2018,08,07,01,12,20.90
2018,08,07,01,13,20.90
2018,08,07,01,14,20.90
2018,08,07,01,15,20.90
2018,08,07,01,16,20.90
2018,08,07,01,17,20.90
2018,08,07,01,18,20.90
2018,08,07,01,19,20.90
2018,08,07,01,20,20.90
2018,08,07,01,21,20.80
2018,08,07,01,22,20.80
2018,08,07,01,23,20.80
2018,08,07,01,24,20.80
2018,08,07,01,25,20.80
2018,08,07,01,26,20.80
2018,08,07,01,27,20.80
2018,08,07,01,28,20.70
2018,08,07,01,29,20.70
2018,08,07,01,30,20.70
2018,08,07,01,31,20.70
2018,08,07,01,32,20.60
2018,08,07,01,33,20.60
2018,08,07,01,34,20.60
2018,08,07,01,35,20.60
2018,08,07,01,36,20.50
2018,08,07,01,37,20.50
2018,08,07,01,38,20.40
2018,08,07,01,39,20.40
2018,08,07,01,40,20.40
2018,08,07,01,41,20.40
2018,08,07,01,42,20.40
2018,08,07,01,43,20.30
2018,08,07,01,44,20.30
2018,08,07,01,45,20.30
2018,08,07,01,46,20.30
2018,08,07,01,47,20.30
2018,08,07,01,48,20.30
2018,08,07,01,49,20.30
2018,08,07,01,50,20.20
2018,08,07,01,51,20.20
2018,08,07,01,52,20.20
2018,08,07,01,53,20.20
2018,08,07,01,54,20.20
2018,08,07,01,55,20.20
2018,08,07,01,56,20.20
2018,08,07,01,57,20.20
2018,08,07,01,58,20.20
2018,08,07,01,59,20.20
2018,08,07,02,00,20.20
2018,08,07,02,01,20.20
2018,08,07,02,02,20.10
2018,08,07,02,03,20.10
2018,08,07,02,04,20.10
2018,08,07,02,05,20.10
2018,08,07,02,06,20.10
2018,08,07,02,07,20.10
2018,08,07,02,08,20.10
2018,08,07,02,09,20.10
2018,08,07,02,10,20.10
2018,08,07,02,11,20.10
2018,08,07,02,12,20.10
2018,08,07,02,13,20.10
2018,08,07,02,14,20.10
2018,08,07,02,15,20.10
2018,08,07,02,16,20.00
2018,08,07,02,17,20.00
2018,08,07,02,18,20.00
2018,08,07,02,19,19.90
2018,08,07,02,20,19.90
2018,08,07,02,21,19.80
2018,08,07,02,22,19.80
2018,08,07,02,23,19.80
2018,08,07,02,24,19.70
2018,08,07,02,25,19.70
2018,08,07,02,26,19.70
2018,08,07,02,27,19.60
2018,08,07,02,28,19.60
2018,08,07,02,29,19.50
2018,08,07,02,30,19.40
2018,08,07,02,31,19.40
2018,08,07,02,32,19.30
2018,08,07,02,33,19.20
2018,08,07,02,34,19.10
2018,08,07,02,35,19.00
2018,08,07,02,36,19.00
2018,08,07,02,37,18.90
2018,08,07,02,38,18.80
2018,08,07,02,39,18.80
2018,08,07,02,40,18.80
2018,08,07,02,41,18.70
2018,08,07,02,42,18.70
2018,08,07,02,43,18.60
2018,08,07,02,44,18.60
2018,08,07,02,45,18.60
2018,08,07,02,46,18.60
2018,08,07,02,47,18.60
2018,08,07,02,48,18.60
2018,08,07,02,49,18.50
2018,08,07,02,50,18.50
2018,08,07,02,51,18.50
2018,08,07,02,52,18.40
2018,08,07,02,53,18.40
2018,08,07,02,54,18.40
2018,08,07,02,55,18.30
2018,08,07,02,56,18.30
2018,08,07,02,57,18.30
2018,08,07,02,58,18.20
2018,08,07,02,59,18.20
2018,08,07,03,00,18.10
2018,08,07,03,01,18.10
2018,08,07,03,02,18.00
2018,08,07,03,03,18.00
2018,08,07,03,04,17.90
2018,08,07,03,05,17.90
2018,08,07,03,06,17.90
2018,08,07,03,07,17.80
2018,08,07,03,08,17.80
2018,08,07,03,09,17.80
2018,08,07,03,10,17.70
2018,08,07,03,11,17.70
2018,08,07,03,12,17.70
2018,08,07,03,13,17.60
2018,08,07,03,14,17.60
2018,08,07,03,15,17.60
2018,08,07,03,16,17.50
2018,08,07,03,17,17.50
2018,08,07,03,18,17.50
2018,08,07,03,19,17.50
2018,08,07,03,20,17.50
2018,08,07,03,21,17.50
2018,08,07,03,22,17.50
2018,08,07,03,23,17.60
2018,08,07,03,24,17.60
2018,08,07,03,25,17.70
2018,08,07,03,26,17.80
2018,08,07,03,27,17.80
2018,08,07,03,28,17.90
2018,08,07,03,29,18.00
2018,08,07,03,30,18.00
2018,08,07,03,31,18.10
2018,08,07,03,32,18.10
2018,08,07,03,33,18.20
2018,08,07,03,34,18.20
2018,08,07,03,35,18.20
2018,08,07,03,36,18.30
2018,08,07,03,37,18.30
2018,08,07,03,38,18.30
2018,08,07,03,39,18.30
2018,08,07,03,40,18.30
2018,08,07,03,41,18.30
2018,08,07,03,42,18.30
2018,08,07,03,43,18.30
2018,08,07,03,44,18.40
2018,08,07,03,45,18.40
2018,08,07,03,46,18.40
2018,08,07,03,47,18.40
2018,08,07,03,48,18.40
2018,08,07,03,49,18.40
2018,08,07,03,50,18.40
2018,08,07,03,51,18.40
2018,08,07,03,52,18.30
2018,08,07,03,53,18.30
2018,08,07,03,54,18.30
2018,08,07,03,55,18.30
2018,08,07,03,56,18.30
2018,08,07,03,57,18.30
2018,08,07,03,58,18.30
2018,08,07,03,59,18.30
2018,08,07,04,00,18.20
2018,08,07,04,01,18.20
2018,08,07,04,02,18.20
2018,08,07,04,03,18.10
2018,08,07,04,04,18.10
2018,08,07,04,05,18.10
2018,08,07,04,06,18.10
2018,08,07,04,07,18.10
2018,08,07,04,08,18.00
2018,08,07,04,09,18.00
2018,08,07,04,10,18.00
2018,08,07,04,11,18.00
2018,08,07,04,12,18.00
2018,08,07,04,13,18.00
2018,08,07,04,14,17.90
2018,08,07,04,15,17.90
2018,08,07,04,16,17.90
2018,08,07,04,17,17.90
2018,08,07,04,18,17.90
2018,08,07,04,19,17.90
2018,08,07,04,20,17.80
2018,08,07,04,21,17.80
2018,08,07,04,22,17.80
2018,08,07,04,23,17.80
2018,08,07,04,24,17.90
2018,08,07,04,25,17.90
2018,08,07,04,26,17.90
2018,08,07,04,27,17.90
2018,08,07,04,28,17.80
2018,08,07,04,29,17.80
2018,08,07,04,30,17.80
2018,08,07,04,31,17.80
2018,08,07,04,32,17.80
2018,08,07,04,33,17.80
2018,08,07,04,34,17.80
2018,08,07,04,35,17.80
2018,08,07,04,36,17.90
2018,08,07,04,37,17.90
2018,08,07,04,38,18.00
2018,08,07,04,39,18.00
2018,08,07,04,40,18.10
2018,08,07,04,41,18.10
2018,08,07,04,42,18.10
2018,08,07,04,43,18.10
2018,08,07,04,44,18.10
2018,08,07,04,45,18.00
2018,08,07,04,46,18.00
2018,08,07,04,47,17.90
2018,08,07,04,48,17.90
2018,08,07,04,49,17.90
2018,08,07,04,50,17.80
2018,08,07,04,51,17.80
2018,08,07,04,52,17.80
2018,08,07,04,53,17.70
2018,08,07,04,54,17.70
2018,08,07,04,55,17.70
2018,08,07,04,56,17.70
2018,08,07,04,57,17.70
2018,08,07,04,58,17.70
2018,08,07,04,59,17.70
2018,08,07,05,00,17.70
2018,08,07,05,01,17.70
2018,08,07,05,02,17.60
2018,08,07,05,03,17.50
2018,08,07,05,04,17.50
2018,08,07,05,05,17.40
2018,08,07,05,06,17.30
2018,08,07,05,07,17.20
2018,08,07,05,08,17.20
2018,08,07,05,09,17.10
2018,08,07,05,10,17.10
2018,08,07,05,11,17.00
2018,08,07,05,12,16.90
2018,08,07,05,13,16.90
2018,08,07,05,14,16.80
2018,08,07,05,15,16.80
2018,08,07,05,16,16.80
2018,08,07,05,17,16.80
2018,08,07,05,18,16.90
2018,08,07,05,19,16.90
2018,08,07,05,20,17.00
2018,08,07,05,21,17.00
2018,08,07,05,22,17.10
2018,08,07,05,23,17.10
2018,08,07,05,24,17.10
2018,08,07,05,25,17.10
2018,08,07,05,26,17.10
2018,08,07,05,27,17.10
2018,08,07,05,28,17.20
2018,08,07,05,29,17.20
2018,08,07,05,30,17.20
2018,08,07,05,31,17.20
2018,08,07,05,32,17.30
2018,08,07,05,33,17.30
2018,08,07,05,34,17.30
2018,08,07,05,35,17.30
2018,08,07,05,36,17.30
2018,08,07,05,37,17.20
2018,08,07,05,38,17.20
2018,08,07,05,39,17.20
2018,08,07,05,40,17.10
2018,08,07,05,41,17.10
2018,08,07,05,42,17.00
2018,08,07,05,43,16.90
2018,08,07,05,44,16.90
2018,08,07,05,45,16.80
2018,08,07,05,46,16.80
2018,08,07,05,47,16.70
2018,08,07,05,48,16.70
2018,08,07,05,49,16.70
2018,08,07,05,50,16.60
2018,08,07,05,51,16.60
2018,08,07,05,52,16.60
2018,08,07,05,53,16.50
2018,08,07,05,54,16.50
2018,08,07,05,55,16.40
2018,08,07,05,56,16.40
2018,08,07,05,57,16.40
2018,08,07,05,58,16.40
2018,08,07,05,59,16.40
2018,08,07,06,00,16.30
2018,08,07,06,01,16.30
2018,08,07,06,02,16.30
2018,08,07,06,03,16.30
2018,08,07,06,04,16.30
2018,08,07,06,05,16.30
2018,08,07,06,06,16.30
2018,08,07,06,07,16.30
2018,08,07,06,08,16.20
2018,08,07,06,09,16.20
2018,08,07,06,10,16.20
2018,08,07,06,11,16.20
2018,08,07,06,12,16.20
2018,08,07,06,13,16.20
2018,08,07,06,14,16.20
2018,08,07,06,15,16.20
2018,08,07,06,16,16.20
2018,08,07,06,17,16.30
2018,08,07,06,18,16.30
2018,08,07,06,19,16.30
2018,08,07,06,20,16.30
2018,08,07,06,21,16.40
2018,08,07,06,22,16.40
2018,08,07,06,23,16.40
2018,08,07,06,24,16.50
2018,08,07,06,25,16.50
2018,08,07,06,26,16.50
2018,08,07,06,27,16.60
2018,08,07,06,28,16.60
2018,08,07,06,29,16.60
2018,08,07,06,30,16.70
2018,08,07,06,31,16.70
2018,08,07,06,32,16.70
2018,08,07,06,33,16.70
2018,08,07,06,34,16.70
2018,08,07,06,35,16.80
2018,08,07,06,36,16.80
2018,08,07,06,37,16.80
2018,08,07,06,38,16.80
2018,08,07,06,39,16.90
2018,08,07,06,40,16.90
2018,08,07,06,41,16.90
2018,08,07,06,42,17.00
2018,08,07,06,43,17.00
2018,08,07,06,44,17.10
2018,08,07,06,45,17.10
2018,08,07,06,46,17.20
2018,08,07,06,47,17.20
2018,08,07,06,48,17.20
2018,08,07,06,49,17.20
2018,08,07,06,50,17.30
2018,08,07,06,51,17.30
2018,08,07,06,52,17.30
2018,08,07,06,53,17.30
2018,08,07,06,54,17.30
2018,08,07,06,55,17.30
2018,08,07,06,56,17.30
2018,08,07,06,57,17.30
2018,08,07,06,58,17.30
2018,08,07,06,59,17.30
2018,08,07,07,00,17.30
2018,08,07,07,01,17.40
2018,08,07,07,02,17.40
2018,08,07,07,03,17.40
2018,08,07,07,04,17.40
2018,08,07,07,05,17.40
2018,08,07,07,06,17.40
2018,08,07,07,07,17.40
2018,08,07,07,08,17.40
2018,08,07,07,09,17.40
2018,08,07,07,10,17.40
2018,08,07,07,11,17.40
2018,08,07,07,12,17.40
2018,08,07,07,13,17.40
2018,08,07,07,14,17.40
2018,08,07,07,15,17.50
2018,08,07,07,16,17.50
2018,08,07,07,17,17.50
2018,08,07,07,18,17.60
2018,08,07,07,19,17.60
2018,08,07,07,20,17.60
2018,08,07,07,21,17.70
2018,08,07,07,22,17.70
2018,08,07,07,23,17.70
2018,08,07,07,24,17.80
2018,08,07,07,25,17.80
2018,08,07,07,26,17.90
2018,08,07,07,27,17.90
2018,08,07,07,28,18.00
2018,08,07,07,29,18.10
2018,08,07,07,30,18.10
2018,08,07,07,31,18.20
2018,08,07,07,32,18.30
2018,08,07,07,33,18.30
2018,08,07,07,34,18.40
2018,08,07,07,35,18.50
2018,08,07,07,36,18.50
2018,08,07,07,37,18.60
2018,08,07,07,38,18.60
2018,08,07,07,39,18.70
2018,08,07,07,40,18.80
2018,08,07,07,41,18.80
2018,08,07,07,42,18.90
2018,08,07,07,43,19.00
2018,08,07,07,44,19.00
2018,08,07,07,45,19.10
2018,08,07,07,46,19.10
2018,08,07,07,47,19.20
2018,08,07,07,48,19.20
2018,08,07,07,49,19.30
2018,08,07,07,50,19.30
2018,08,07,07,51,19.40
2018,08,07,07,52,19.40
2018,08,07,07,53,19.40
2018,08,07,07,54,19.50
2018,08,07,07,55,19.50
2018,08,07,07,56,19.50
2018,08,07,07,57,19.60
2018,08,07,07,58,19.60
2018,08,07,07,59,19.60
2018,08,07,08,00,19.60
2018,08,07,08,01,19.70
2018,08,07,08,02,19.70
2018,08,07,08,03,19.80
2018,08,07,08,04,19.80
2018,08,07,08,05,19.80
2018,08,07,08,06,19.90
2018,08,07,08,07,19.90
2018,08,07,08,08,20.00
2018,08,07,08,09,20.10
2018,08,07,08,10,20.10
2018,08,07,08,11,20.20
2018,08,07,08,12,20.20
2018,08,07,08,13,20.30
2018,08,07,08,14,20.30
2018,08,07,08,15,20.30
2018,08,07,08,16,20.40
2018,08,07,08,17,20.50
2018,08,07,08,18,20.50
2018,08,07,08,19,20.60
2018,08,07,08,20,20.60
2018,08,07,08,21,20.60
2018,08,07,08,22,20.70
2018,08,07,08,23,20.70
2018,08,07,08,24,20.80
2018,08,07,08,25,20.90
2018,08,07,08,26,20.90
2018,08,07,08,27,21.00
2018,08,07,08,28,21.00
2018,08,07,08,29,21.10
2018,08,07,08,30,21.10
2018,08,07,08,31,21.20
2018,08,07,08,32,21.30
2018,08,07,08,33,21.30
2018,08,07,08,34,21.40
2018,08,07,08,35,21.40
2018,08,07,08,36,21.40
2018,08,07,08,37,21.50
2018,08,07,08,38,21.50
2018,08,07,08,39,21.60
2018,08,07,08,40,21.60
2018,08,07,08,41,21.70
2018,08,07,08,42,21.70
2018,08,07,08,43,21.70
2018,08,07,08,44,21.70
2018,08,07,08,45,21.60
2018,08,07,08,46,21.60
2018,08,07,08,47,21.60
2018,08,07,08,48,21.50
2018,08,07,08,49,21.60
2018,08,07,08,50,21.60
2018,08,07,08,51,21.60
2018,08,07,08,52,21.60
2018,08,07,08,53,21.70
2018,08,07,08,54,21.70
2018,08,07,08,55,21.80
2018,08,07,08,56,21.80
2018,08,07,08,57,21.90
2018,08,07,08,58,21.90
2018,08,07,08,59,22.00
2018,08,07,09,00,22.00
2018,08,07,09,01,22.00
2018,08,07,09,02,22.00
2018,08,07,09,03,22.10
2018,08,07,09,04,22.20
2018,08,07,09,05,22.20
2018,08,07,09,06,22.30
2018,08,07,09,07,22.30
2018,08,07,09,08,22.30
2018,08,07,09,09,22.40
2018,08,07,09,10,22.30
2018,08,07,09,11,22.30
2018,08,07,09,12,22.20
2018,08,07,09,13,22.20
2018,08,07,09,14,22.20
2018,08,07,09,15,22.20
2018,08,07,09,16,22.20
2018,08,07,09,17,22.20
2018,08,07,09,18,22.20
2018,08,07,09,19,22.20
2018,08,07,09,20,22.20
2018,08,07,09,21,22.20
2018,08,07,09,22,22.20
2018,08,07,09,23,22.20
2018,08,07,09,24,22.20
2018,08,07,09,25,22.30
2018,08,07,09,26,22.30
2018,08,07,09,27,22.30
2018,08,07,09,28,22.40
2018,08,07,09,29,22.40
2018,08,07,09,30,22.40
2018,08,07,09,31,22.40
2018,08,07,09,32,22.50
2018,08,07,09,33,22.60
2018,08,07,09,34,22.60
2018,08,07,09,35,22.70
2018,08,07,09,36,22.70
2018,08,07,09,37,22.80
2018,08,07,09,38,22.80
2018,08,07,09,39,22.90
2018,08,07,09,40,22.90
2018,08,07,09,41,22.90
2018,08,07,09,42,22.90
2018,08,07,09,43,22.90
2018,08,07,09,44,22.80
2018,08,07,09,45,22.90
2018,08,07,09,46,22.90
2018,08,07,09,47,22.90
2018,08,07,09,48,23.00
2018,08,07,09,49,23.00
2018,08,07,09,50,23.00
2018,08,07,09,51,23.00
2018,08,07,09,52,23.10
2018,08,07,09,53,23.00
2018,08,07,09,54,23.00
2018,08,07,09,55,22.90
2018,08,07,09,56,22.90
2018,08,07,09,57,22.90
2018,08,07,09,58,22.90
2018,08,07,09,59,23.00
2018,08,07,10,00,23.00
2018,08,07,10,01,23.10
2018,08,07,10,02,23.10
2018,08,07,10,03,23.20
2018,08,07,10,04,23.20
2018,08,07,10,05,23.30
2018,08,07,10,06,23.40
2018,08,07,10,07,23.40
2018,08,07,10,08,23.50
2018,08,07,10,09,23.60
2018,08,07,10,10,23.60
2018,08,07,10,11,23.70
2018,08,07,10,12,23.80
2018,08,07,10,13,23.80
2018,08,07,10,14,23.90
2018,08,07,10,15,24.00
2018,08,07,10,16,24.10
2018,08,07,10,17,24.10
2018,08,07,10,18,24.10
2018,08,07,10,19,24.20
2018,08,07,10,20,24.20
2018,08,07,10,21,24.30
2018,08,07,10,22,24.30
2018,08,07,10,23,24.30
2018,08,07,10,24,24.40
2018,08,07,10,25,24.40
2018,08,07,10,26,24.40
2018,08,07,10,27,24.40
2018,08,07,10,28,24.50
2018,08,07,10,29,24.50
2018,08,07,10,30,24.50
2018,08,07,10,31,24.40
2018,08,07,10,32,24.40
2018,08,07,10,33,24.40
2018,08,07,10,34,24.50
2018,08,07,10,35,24.60
2018,08,07,10,36,24.60
2018,08,07,10,37,24.60
2018,08,07,10,38,24.70
2018,08,07,10,39,24.70
2018,08,07,10,40,24.70
2018,08,07,10,41,24.70
2018,08,07,10,42,24.70
2018,08,07,10,43,24.70
2018,08,07,10,44,24.70
2018,08,07,10,45,24.70
2018,08,07,10,46,24.70
2018,08,07,10,47,24.60
2018,08,07,10,48,24.60
2018,08,07,10,49,24.60
2018,08,07,10,50,24.60
2018,08,07,10,51,24.60
2018,08,07,10,52,24.60
2018,08,07,10,53,24.70
2018,08,07,10,54,24.70
2018,08,07,10,55,24.70
2018,08,07,10,56,24.70
2018,08,07,10,57,24.80
2018,08,07,10,58,24.90
2018,08,07,10,59,24.90
2018,08,07,11,00,24.90
2018,08,07,11,01,24.90
2018,08,07,11,02,25.00
2018,08,07,11,03,25.00
2018,08,07,11,04,25.00
2018,08,07,11,05,25.10
2018,08,07,11,06,25.10
2018,08,07,11,07,25.20
2018,08,07,11,08,25.20
2018,08,07,11,09,25.20
2018,08,07,11,10,25.20
2018,08,07,11,11,25.20
2018,08,07,11,12,25.20
2018,08,07,11,13,25.20
2018,08,07,11,14,25.30
2018,08,07,11,15,25.40
2018,08,07,11,16,25.40
2018,08,07,11,17,25.50
2018,08,07,11,18,25.70
2018,08,07,11,19,25.80
2018,08,07,11,20,25.80
2018,08,07,11,21,25.90
2018,08,07,11,22,25.90
2018,08,07,11,23,26.00
2018,08,07,11,24,26.00
2018,08,07,11,25,26.00
2018,08,07,11,26,25.90
2018,08,07,11,27,25.90
2018,08,07,11,28,25.90
2018,08,07,11,29,25.90
2018,08,07,11,30,25.90
2018,08,07,11,31,25.90
2018,08,07,11,32,25.80
2018,08,07,11,33,25.80
2018,08,07,11,34,25.90
2018,08,07,11,35,25.90
2018,08,07,11,36,25.90
2018,08,07,11,37,25.90
2018,08,07,11,38,25.90
2018,08,07,11,39,26.00
2018,08,07,11,40,26.10
2018,08,07,11,41,26.10
2018,08,07,11,42,26.10
2018,08,07,11,43,26.10
2018,08,07,11,44,26.00
2018,08,07,11,45,26.00
2018,08,07,11,46,26.00
2018,08,07,11,47,26.10
2018,08,07,11,48,26.10
2018,08,07,11,49,26.10
2018,08,07,11,50,26.20
2018,08,07,11,51,26.20
2018,08,07,11,52,26.20
2018,08,07,11,53,26.10
2018,08,07,11,54,26.10
2018,08,07,11,55,26.10
2018,08,07,11,56,26.10
2018,08,07,11,57,26.20
2018,08,07,11,58,26.20
2018,08,07,11,59,26.20
2018,08,07,12,00,26.30
2018,08,07,12,01,26.40
2018,08,07,12,02,26.40
2018,08,07,12,03,26.50
2018,08,07,12,04,26.60
2018,08,07,12,05,26.70
2018,08,07,12,06,26.80
2018,08,07,12,07,26.80
2018,08,07,12,08,26.80
2018,08,07,12,09,26.90
2018,08,07,12,10,26.90
2018,08,07,12,11,27.00
2018,08,07,12,12,27.00
2018,08,07,12,13,27.00
2018,08,07,12,14,26.90
2018,08,07,12,15,26.80
2018,08,07,12,16,26.60
2018,08,07,12,17,26.50
2018,08,07,12,18,26.40
2018,08,07,12,19,26.30
2018,08,07,12,20,26.30
2018,08,07,12,21,26.20
2018,08,07,12,22,26.10
2018,08,07,12,23,26.10
2018,08,07,12,24,26.00
2018,08,07,12,25,25.90
2018,08,07,12,26,25.90
2018,08,07,12,27,25.80
2018,08,07,12,28,25.80
2018,08,07,12,29,25.80
2018,08,07,12,30,25.80
2018,08,07,12,31,25.90
2018,08,07,12,32,25.90
2018,08,07,12,33,25.90
2018,08,07,12,34,25.90
2018,08,07,12,35,25.90
2018,08,07,12,36,25.90
2018,08,07,12,37,25.90
2018,08,07,12,38,25.90
2018,08,07,12,39,25.90
2018,08,07,12,40,26.00
2018,08,07,12,41,26.10
2018,08,07,12,42,26.10
2018,08,07,12,43,26.20
2018,08,07,12,44,26.20
2018,08,07,12,45,26.30
2018,08,07,12,46,26.30
2018,08,07,12,47,26.30
2018,08,07,12,48,26.30
2018,08,07,12,49,26.30
2018,08,07,12,50,26.30
2018,08,07,12,51,26.40
2018,08,07,12,52,26.50
2018,08,07,12,53,26.60
2018,08,07,12,54,26.70
2018,08,07,12,55,26.70
2018,08,07,12,56,26.80
2018,08,07,12,57,26.80
2018,08,07,12,58,26.90
2018,08,07,12,59,26.90
2018,08,07,13,00,26.90
2018,08,07,13,01,26.90
2018,08,07,13,02,27.00
2018,08,07,13,03,27.10
2018,08,07,13,04,27.20
2018,08,07,13,05,27.30
2018,08,07,13,06,27.40
2018,08,07,13,07,27.50
2018,08,07,13,08,27.50
2018,08,07,13,09,27.60
2018,08,07,13,10,27.60
2018,08,07,13,11,27.60
2018,08,07,13,12,27.70
2018,08,07,13,13,27.70
2018,08,07,13,14,27.70
2018,08,07,13,15,27.70
2018,08,07,13,16,27.70
2018,08,07,13,17,27.70
2018,08,07,13,18,27.70
2018,08,07,13,19,27.70
2018,08,07,13,20,27.70
2018,08,07,13,21,27.70
2018,08,07,13,22,27.70
2018,08,07,13,23,27.80
2018,08,07,13,24,27.80
2018,08,07,13,25,27.80
2018,08,07,13,26,27.80
2018,08,07,13,27,27.90
2018,08,07,13,28,27.90
2018,08,07,13,29,28.00
2018,08,07,13,30,28.00
2018,08,07,13,31,28.10
2018,08,07,13,32,28.20
2018,08,07,13,33,28.30
2018,08,07,13,34,28.30
2018,08,07,13,35,28.40
2018,08,07,13,36,28.50
2018,08,07,13,37,28.60
2018,08,07,13,38,28.70
2018,08,07,13,39,28.70
2018,08,07,13,40,28.80
2018,08,07,13,41,28.80
2018,08,07,13,42,28.80
2018,08,07,13,43,28.90
2018,08,07,13,44,28.90
2018,08,07,13,45,29.00
2018,08,07,13,46,29.00
2018,08,07,13,47,29.00
2018,08,07,13,48,29.00
2018,08,07,13,49,29.00
2018,08,07,13,50,29.00
2018,08,07,13,51,28.90
2018,08,07,13,52,28.90
2018,08,07,13,53,28.90
2018,08,07,13,54,28.80
2018,08,07,13,55,28.80
2018,08,07,13,56,28.80
2018,08,07,13,57,28.70
2018,08,07,13,58,28.70
2018,08,07,13,59,28.70
2018,08,07,14,00,28.60
2018,08,07,14,01,28.60
2018,08,07,14,02,28.60
2018,08,07,14,03,28.60
2018,08,07,14,04,28.60
2018,08,07,14,05,28.60
2018,08,07,14,06,28.70
2018,08,07,14,07,28.70
2018,08,07,14,08,28.70
2018,08,07,14,09,28.70
2018,08,07,14,10,28.70
2018,08,07,14,11,28.70
2018,08,07,14,12,28.70
2018,08,07,14,13,28.80
2018,08,07,14,14,28.80
2018,08,07,14,15,28.90
2018,08,07,14,16,28.90
2018,08,07,14,17,28.90
2018,08,07,14,18,29.00
2018,08,07,14,19,29.00
2018,08,07,14,20,29.00
2018,08,07,14,21,29.00
2018,08,07,14,22,29.00
2018,08,07,14,23,29.00
2018,08,07,14,24,29.10
2018,08,07,14,25,29.10
2018,08,07,14,26,29.10
2018,08,07,14,27,29.00
2018,08,07,14,28,29.00
2018,08,07,14,29,29.00
2018,08,07,14,30,29.10
2018,08,07,14,31,29.10
2018,08,07,14,32,29.10
2018,08,07,14,33,29.10
2018,08,07,14,34,29.10
2018,08,07,14,35,29.20
2018,08,07,14,36,29.30
2018,08,07,14,37,29.30
2018,08,07,14,38,29.40
2018,08,07,14,39,29.40
2018,08,07,14,40,29.40
2018,08,07,14,41,29.40
2018,08,07,14,42,29.40
2018,08,07,14,43,29.40
2018,08,07,14,44,29.50
2018,08,07,14,45,29.50
2018,08,07,14,46,29.50
2018,08,07,14,47,29.50
2018,08,07,14,48,29.40
2018,08,07,14,49,29.30
2018,08,07,14,50,29.30
2018,08,07,14,51,29.30
2018,08,07,14,52,29.30
2018,08,07,14,53,29.30
2018,08,07,14,54,29.20
2018,08,07,14,55,29.20
2018,08,07,14,56,29.20
2018,08,07,14,57,29.20
2018,08,07,14,58,29.30
2018,08,07,14,59,29.20
2018,08,07,15,00,29.20
2018,08,07,15,01,29.20
2018,08,07,15,02,29.10
2018,08,07,15,03,29.20
2018,08,07,15,04,29.20
2018,08,07,15,05,29.20
2018,08,07,15,06,29.20
2018,08,07,15,07,29.30
2018,08,07,15,08,29.30
2018,08,07,15,09,29.30
2018,08,07,15,10,29.30
2018,08,07,15,11,29.40
2018,08,07,15,12,29.40
2018,08,07,15,13,29.40
2018,08,07,15,14,29.50
2018,08,07,15,15,29.50
2018,08,07,15,16,29.50
2018,08,07,15,17,29.60
2018,08,07,15,18,29.60
2018,08,07,15,19,29.70
2018,08,07,15,20,29.70
2018,08,07,15,21,29.80
2018,08,07,15,22,29.90
2018,08,07,15,23,29.90
2018,08,07,15,24,30.00
2018,08,07,15,25,30.00
2018,08,07,15,26,30.00
2018,08,07,15,27,30.10
2018,08,07,15,28,30.20
2018,08,07,15,29,30.20
2018,08,07,15,30,30.20
2018,08,07,15,31,30.30
2018,08,07,15,32,30.30
2018,08,07,15,33,30.30
2018,08,07,15,34,30.30
2018,08,07,15,35,30.30
2018,08,07,15,36,30.30
2018,08,07,15,37,30.40
2018,08,07,15,38,30.40
2018,08,07,15,39,30.40
2018,08,07,15,40,30.40
2018,08,07,15,41,30.50
2018,08,07,15,42,30.50
2018,08,07,15,43,30.60
2018,08,07,15,44,30.60
2018,08,07,15,45,30.70
2018,08,07,15,46,30.70
2018,08,07,15,47,30.80
2018,08,07,15,48,30.80
2018,08,07,15,49,30.80
2018,08,07,15,50,30.80
2018,08,07,15,51,30.70
2018,08,07,15,52,30.70
2018,08,07,15,53,30.70
2018,08,07,15,54,30.70
2018,08,07,15,55,30.60
2018,08,07,15,56,30.60
2018,08,07,15,57,30.60
2018,08,07,15,58,30.60
2018,08,07,15,59,30.70
2018,08,07,16,00,30.70
2018,08,07,16,01,30.70
2018,08,07,16,02,30.80
2018,08,07,16,03,30.80
2018,08,07,16,04,30.80
2018,08,07,16,05,30.80
2018,08,07,16,06,30.90
2018,08,07,16,07,30.90
2018,08,07,16,08,31.00
2018,08,07,16,09,31.10
2018,08,07,16,10,31.10
2018,08,07,16,11,31.20
2018,08,07,16,12,31.20
2018,08,07,16,13,31.30
2018,08,07,16,14,31.30
2018,08,07,16,15,31.40
2018,08,07,16,16,31.40
2018,08,07,16,17,31.40
2018,08,07,16,18,31.40
2018,08,07,16,19,31.40
2018,08,07,16,20,31.30
2018,08,07,16,21,31.30
2018,08,07,16,22,31.20
2018,08,07,16,23,31.20
2018,08,07,16,24,31.20
2018,08,07,16,25,31.20
2018,08,07,16,26,31.10
2018,08,07,16,27,31.10
2018,08,07,16,28,31.10
2018,08,07,16,29,31.20
2018,08,07,16,30,31.20
2018,08,07,16,31,31.20
2018,08,07,16,32,31.20
2018,08,07,16,33,31.20
2018,08,07,16,34,31.20
2018,08,07,16,35,31.30
2018,08,07,16,36,31.30
2018,08,07,16,37,31.30
2018,08,07,16,38,31.30
2018,08,07,16,39,31.30
2018,08,07,16,40,31.30
2018,08,07,16,41,31.30
2018,08,07,16,42,31.30
2018,08,07,16,43,31.30
2018,08,07,16,44,31.40
2018,08,07,16,45,31.50
2018,08,07,16,46,31.50
2018,08,07,16,47,31.60
2018,08,07,16,48,31.60
2018,08,07,16,49,31.60
2018,08,07,16,50,31.60
2018,08,07,16,51,31.60
2018,08,07,16,52,31.60
2018,08,07,16,53,31.70
2018,08,07,16,54,31.70
2018,08,07,16,55,31.70
2018,08,07,16,56,31.80
2018,08,07,16,57,31.80
2018,08,07,16,58,31.80
2018,08,07,16,59,31.80
2018,08,07,17,00,31.80
2018,08,07,17,01,31.80
2018,08,07,17,02,31.70
2018,08,07,17,03,31.70
2018,08,07,17,04,31.60
2018,08,07,17,05,31.60
2018,08,07,17,06,31.70
2018,08,07,17,07,31.70
2018,08,07,17,08,31.70
2018,08,07,17,09,31.70
2018,08,07,17,10,31.80
2018,08,07,17,11,31.90
2018,08,07,17,12,32.00
2018,08,07,17,13,32.00
2018,08,07,17,14,32.10
2018,08,07,17,15,32.10
2018,08,07,17,16,32.20
2018,08,07,17,17,32.20
2018,08,07,17,18,32.20
2018,08,07,17,19,32.30